Regional Weather Roundup
Issued by NWS

Home | Current Version | Previous Version | Graphics & Text | Print | Product List | Glossary On
Versions: 1 2 3 4 5 6 7 8 9 10 11 12 13 14 15 16 17 18 19 20 21 22 23 24 25 26 27 28 29 30 31 32 33 34 35 36 37 38 39 40 41 42 43 44 45 46 47 48 49 50
000
ASUS43 KBIS 222110
RWRND

NORTH DAKOTA REGIONAL WEATHER ROUNDUP
NATIONAL WEATHER SERVICE BISMARCK ND
400 PM CDT FRI MAY 22 2015

NOTE: "FAIR" INDICATES FEW OR NO CLOUDS BELOW 12,000 FEET WITH NO
SIGNIFICANT WEATHER AND/OR OBSTRUCTIONS TO VISIBILITY.


NDZ001>003-009>011-017-222200-
NORTHWEST NORTH DAKOTA

CITY           SKY/WX    TMP DP  RH WIND       PRES   REMARKS
WILLISTON      SUNNY     76  33  21 S13G24    30.06F
MINOT          MOSUNNY   76  33  21 S14G20    30.09F
MINOT AFB      SUNNY     78  35  20 SE10      30.08F
$$

NDZ018>021-031>035-040>046-222200-
SOUTHWEST NORTH DAKOTA

CITY           SKY/WX    TMP DP  RH WIND       PRES   REMARKS
BISMARCK       MOSUNNY   76  38  25 S20       30.11F
DICKINSON      MOSUNNY   73  27  18 SE26G33   30.05F
GARRISON         N/A     76  33  21 S15G23    30.10F
HETTINGER ARPT MOSUNNY   69  33  26 SE23G31   30.08F
$$

NDZ004>008-012>016-024-026-027-054-222200-
NORTHEAST NORTH DAKOTA

CITY           SKY/WX    TMP DP  RH WIND       PRES   REMARKS
GRAND FORKS    MOSUNNY   77  38  24 SW12      30.14F
GRND FRKS AFB  SUNNY     77  39  24 SW10      30.14F
DEVILS LAKE    SUNNY     75  36  23 SE13      30.13F
$$

NDZ022-023-025-028>030-036>039-047>053-222200-
SOUTHEAST NORTH DAKOTA

CITY           SKY/WX    TMP DP  RH WIND       PRES   REMARKS
FARGO          SUNNY     74  41  30 S9        30.16F
JAMESTOWN      SUNNY     74  34  23 SE9       30.14F
$$




USA.gov is the U.S. government's official web portal to all federal, state and local government web resources and services.